Etusivu
METAR-TAF:

METAR-TAF

Lentoasemat :

Rush City Regional Airport

Rush City, Minnesota, Yhdysvallat

Leveyspiiri: 45-41-53N, Pituuspiiri: 092-57-11W, korkeus merenpinnasta: 281 m

Tämänhetkinen sää

Tämä raportti tehtiin 26 minuuttia sitten, kello 09.15 UTC
Tuuli 7 kn etelästä
Lämpötila -8°C
Kosteus 67%
Ilmanpaine 1014 hPa
Näkyvyys: 16.1 km
Hajanaisia pilviä 3400 ft:n korkeudessa
Pilvistä 11000 ft:n korkeudessa

METAR: KROS 130915Z AUTO 17007KT 10SM SCT034 OVC110 M08/M13 A2994 RMK AO2 T10771131

Aika: 03:41 (09:41 UTC)


TAF: puuttuu

Säähavainnot ja -ennusteet yli 4000 lentoasemalta (METAR- ja TAF-raportit).

Käytössä olevat sääasemat on merkitty karttaan keltaisilla ja punaisilla pisteillä.

Aseta hiiri pisteen päälle nähdäksesi sääaseman nimen.

Klikkaa sitten nähdäksesi säähavainnot ja -ennusteet.

Kartan vaihtaminen: klikkaa mustalla rastilla varustettuja vihreitä pisteitä, niin voit zoomata sisään; viivalla varustettua vihreää pistettä, niin voit zoomata ulos tai vihreitä nuolia, niin pääset viereisille kartoille.


METAR-TAF: